OZ1IEP-5 Weather Reports


Display with metric or nautical units.
time (UTC)temp
F
wind
direction
speed
MPH
gust
MPH
rain 1hr
in
rain 24hr
in
rain mn
in
humidity
%
barometer
mb
20260506051005 46 39 1.0 7.0 0.00 0.00 0.00 58 1009.3
20260506045005 46 46 0.0 1.0 0.00 0.00 0.00 63 1009.3
20260506044005 45 13 0.0 1.0 0.00 0.00 0.00 62 1009.3
20260506043007 45 28 0.0 1.0 0.00 0.00 0.00 62 1009.3
20260506042006 45 8 0.0 6.0 0.00 0.00 0.00 62 1009.3
20260506041008 45 6 0.0 3.0 0.00 0.00 0.00 61 1009.3
20260506040010 45 21 0.0 5.0 0.00 0.00 0.00 60 1009.3
20260506035008 44 30 0.0 3.0 0.00 0.00 0.00 61 1009.3
20260506034006 44 19 0.0 3.0 0.00 0.00 0.00 63 1009.3
20260506033009 44 49 0.0 5.0 0.00 0.00 0.00 62 1009.3
20260506032006 44 28 1.0 5.0 0.00 0.00 0.00 62 1009.3
20260506031006 44 37 0.0 7.0 0.00 0.00 0.00 62 1009.3
20260506030008 44 26 0.0 7.0 0.00 0.00 0.00 62 1009.3
20260506025005 44 27 0.0 2.0 0.00 0.00 0.00 62 1009.3
20260506024006 44 38 0.0 6.0 0.00 0.00 0.00 61 1009.5
20260506023008 44 45 0.0 3.0 0.00 0.00 0.00 63 1009.5
20260506022006 45 51 0.0 6.0 0.00 0.00 0.00 62 1009.6
20260506021006 45 42 0.0 2.0 0.00 0.00 0.00 62 1009.8
20260506020008 45 46 0.0 3.0 0.00 0.00 0.00 63 1009.8
20260506015005 45 45 0.0 3.0 0.00 0.00 0.00 65 1009.8
20260506014006 45 33 0.0 5.0 0.00 0.00 0.00 66 1009.8
20260506013008 45 29 0.0 5.0 0.00 0.00 0.00 68 1009.6
20260506012005 45 29 0.0 3.0 0.00 0.00 0.00 70 1009.6
20260506011006 45 31 0.0 5.0 0.00 0.00 0.00 72 1009.7
20260506010008 45 33 0.0 5.0 0.00 0.00 0.00 74 1009.6
20260506005006 45 33 0.0 5.0 0.00 0.00 0.00 76 1009.6
20260506004005 45 9 0.0 6.0 0.00 0.00 0.00 77 1009.4
20260506003008 45 2 0.0 2.0 0.00 0.00 0.00 77 1009.4
20260506002006 45 32 0.0 6.0 0.00 0.00 0.00 78 1009.4
20260506001006 45 9 0.0 7.0 0.00 0.00 0.00 78 1009.3
20260506000008 45 1 1.0 7.0 0.00 0.00 0.00 79 1009.3
20260505235006 45 358 1.0 6.0 0.00 0.00 0.00 79 1009.3
20260505234005 45 12 2.0 9.0 0.00 0.00 0.00 80 1009.3
20260505233008 45 2 1.0 7.0 0.00 0.00 0.00 81 1009.4
20260505232005 45 9 0.0 7.0 0.00 0.00 0.00 81 1009.4
20260505231005 45 8 1.0 7.0 0.00 0.00 0.00 82 1009.4
20260505230007 45 22 1.0 10.0 0.00 0.00 0.00 82 1009.4
20260505225006 45 23 1.0 10.0 0.00 0.00 0.00 82 1009.5
20260505224006 45 13 1.0 6.0 0.00 0.00 0.00 81 1009.6
20260505223008 45 8 1.0 3.0 0.00 0.00 0.00 81 1009.7
20260505222005 45 21 1.0 5.0 0.00 0.00 0.00 81 1009.8
20260505221005 45 7 2.0 7.0 0.00 0.00 0.00 81 1009.8
20260505220009 45 9 2.0 7.0 0.00 0.00 0.00 81 1009.8
20260505215006 45 4 3.0 9.0 0.00 0.00 0.00 80 1009.9
20260505214005 45 1 3.0 7.0 0.00 0.00 0.00 80 1009.9
20260505213009 45 9 3.0 9.0 0.00 0.00 0.00 79 1009.8
20260505212005 45 11 2.0 5.0 0.00 0.00 0.00 78 1009.9
20260505211006 45 10 1.0 5.0 0.00 0.00 0.00 77 1009.9
20260505210008 45 23 1.0 2.0 0.00 0.00 0.00 75 1009.9
20260505205005 45 13 0.0 3.0 0.00 0.00 0.00 74 1010.0
20260505204006 45 16 0.0 3.0 0.00 0.00 0.00 73 1009.9
20260505203008 45 10 1.0 5.0 0.00 0.00 0.00 72 1009.9
20260505202005 45 11 2.0 5.0 0.00 0.00 0.00 72 1009.9
20260505201006 45 8 2.0 6.0 0.00 0.00 0.00 70 1009.9
20260505200008 45 3 3.0 7.0 0.00 0.00 0.00 69 1009.8
20260505195005 45 11 1.0 6.0 0.00 0.00 0.00 67 1009.9
20260505194005 45 4 2.0 7.0 0.00 0.00 0.00 64 1009.9
20260505193009 46 357 3.0 7.0 0.00 0.00 0.00 62 1009.9
20260505192005 46 0 3.0 9.0 0.00 0.00 0.00 59 1009.9
20260505191006 47 358 3.0 7.0 0.00 0.00 0.00 57 1009.9
20260505190019 48 2 2.0 3.0 0.00 0.00 0.00 57 1009.8
20260505185005 48 13 0.0 3.0 0.00 0.00 0.00 55 1009.8
20260505184006 49 14 0.0 3.0 0.00 0.00 0.00 56 1009.8
20260505183008 49 3 1.0 5.0 0.00 0.00 0.00 55 1009.8
20260505182005 49 8 1.0 6.0 0.00 0.00 0.00 54 1009.8
20260505181006 50 0 3.0 7.0 0.00 0.00 0.00 52 1009.7
20260505180008 51 359 1.0 6.0 0.00 0.00 0.00 50 1009.6
20260505175005 51 358 1.0 6.0 0.00 0.00 0.00 54 1009.7
20260505174006 51 1 3.0 7.0 0.00 0.00 0.00 57 1009.7
20260505173009 51 359 5.0 8.0 0.00 0.00 0.00 55 1009.7
20260505172005 52 22 1.0 5.0 0.00 0.00 0.00 59 1009.7
20260505171005 52 356 3.0 8.0 0.00 0.00 0.00 57 1009.8
20260505170008 52 4 5.0 9.0 0.00 0.00 0.00 56 1009.7
20260505165006 52 1 5.0 10.0 0.00 0.00 0.00 56 1009.8
20260505164006 52 24 3.0 10.0 0.00 0.00 0.00 59 1009.7
20260505163009 52 0 2.0 10.0 0.00 0.00 0.00 58 1009.7
20260505162006 52 359 3.0 12.0 0.00 0.00 0.00 56 1009.6
20260505161006 52 355 5.0 14.0 0.00 0.00 0.00 62 1009.6
20260505153007 52 356 9.0 17.0 0.00 0.00 0.00 53 1009.8
20260505152006 53 353 12.0 17.0 0.00 0.00 0.00 51 1009.8
20260505151005 53 345 9.0 15.0 0.00 0.00 0.00 52 1009.8
20260505125006 54 349 7.0 14.0 0.00 0.00 0.00 64 1009.9
20260505124006 54 319 8.0 15.0 0.00 0.00 0.00 71 1009.9
20260505123008 53 313 7.0 17.0 0.00 0.00 0.00 74 1009.9
20260505122006 53 300 6.0 16.0 0.00 0.00 0.00 73 1009.9
20260505121005 53 296 8.0 17.0 0.00 0.00 0.00 73 1009.9
20260505120008 53 290 5.0 15.0 0.00 0.00 0.00 72 1009.9
20260505115005 53 297 7.0 16.0 0.00 0.00 0.00 72 1009.9
20260505114006 53 300 2.0 15.0 0.00 0.00 0.00 72 1009.9
20260505113008 53 275 6.0 14.0 0.00 0.00 0.00 73 1009.9
20260505112005 53 284 1.0 10.0 0.00 0.00 0.00 71 1009.9
20260505111005 53 300 0.0 10.0 0.00 0.00 0.00 74 1009.9
20260505102006 52 301 2.0 12.0 0.00 0.00 0.00 77 1010.1
20260505101005 52 305 6.0 13.0 0.00 0.00 0.00 76 1010.2
20260505100009 52 271 3.0 15.0 0.00 0.00 0.00 77 1010.3
20260505095005 53 293 2.0 9.0 0.00 0.00 0.00 79 1010.3
20260505094006 52 305 3.0 12.0 0.00 0.00 0.00 80 1010.3
20260505093007 52 292 1.0 12.0 0.00 0.00 0.00 79 1010.3
20260505092006 52 287 6.0 14.0 0.00 0.00 0.00 80 1010.3
20260505091005 52 301 3.0 14.0 0.00 0.00 0.00 80 1010.3
20260505090007 51 298 5.0 12.0 0.00 0.00 0.00 81 1010.2
20260505085006 51 299 6.0 13.0 0.00 0.00 0.00 80 1010.3
20260505084005 51 300 1.0 12.0 0.00 0.00 0.00 79 1010.2
20260505083007 51 291 5.0 13.0 0.00 0.00 0.00 80 1010.2
20260505082005 51 292 1.0 12.0 0.00 0.00 0.00 82 1010.0
20260505081005 50 292 4.0 15.0 0.00 0.00 0.00 81 1010.0
20260505080008 50 309 5.0 13.0 0.00 0.00 0.00 82 1009.9
20260505075005 49 318 7.0 16.0 0.00 0.00 0.00 81 1009.9
20260505074006 49 306 6.0 14.0 0.00 0.00 0.00 83 1009.9
20260505073007 49 312 8.0 18.0 0.00 0.00 0.00 82 1009.9
20260505072006 49 328 7.0 13.0 0.00 0.00 0.00 84 1009.8
20260505071005 49 334 10.0 17.0 0.00 0.00 0.00 83 1009.8
20260505070009 49 309 5.0 14.0 0.00 0.00 0.00 85 1009.8
20260505065005 48 324 3.0 13.0 0.00 0.00 0.00 85 1009.8
20260505064005 48 316 5.0 12.0 0.00 0.00 0.00 85 1009.8
20260505063008 48 303 1.0 12.0 0.00 0.00 0.00 85 1009.8
20260505062005 47 320 3.0 13.0 0.00 0.00 0.00 85 1009.8
20260505061005 47 334 5.0 12.0 0.00 0.00 0.00 85 1009.8
20260505060007 47 338 9.0 14.0 0.00 0.00 0.00 85 1009.7